AirNav   Pilot Hours Calculator
 
 660 users online  

O42 Woodlake Airport
Woodlake, California, USA

GOING TO WOODLAKE?


FAA INFORMATION EFFECTIVE 05 DECEMBER 2019

Location

FAA Identifier: O42
Lat/Long: 36-23-55.6000N 119-06-24.5000W
36-23.926667N 119-06.408333W
36.3987778,-119.1068056
(estimated)
Elevation: 425 ft. / 130 m (estimated)
Variation: 15E (1985)
From city: 2 miles S of WOODLAKE, CA
Time zone: UTC -8 (UTC -7 during Daylight Saving Time)
Zip code: 93286

Airport Operations

Airport use: Open to the public
Activation date: 04/1962
Control tower: no
ARTCC: OAKLAND CENTER
FSS: RANCHO MURIETA FLIGHT SERVICE STATION
NOTAMs facility: RIU (NOTAM-D service available)
Attendance: UNATTND
Pattern altitude: 1225 ft. MSL
Wind indicator: lighted
Segmented circle: yes
Beacon: white-green (lighted land airport)
Operates sunset to sunrise.

Airport Communications

CTAF: 122.9
WX AWOS-3PT at VIS (15 nm W): 119.925 (559-651-2418)
WX AWOS-3PT at TLR (18 nm SW): 120.0 (559-686-2613)

Nearby radio navigation aids

VOR radial/distance  VOR name  Freq  Var
VISr068/18.2VISALIA VOR/DME109.4016E
TTEr336/29.4TULE VOR/DME109.2016E

 
NDB name  Hdg/Dist  Freq  Var  ID
SALYER FARMS030/28.620516ECOR -.-. --- .-.

Airport Services

Fuel available: 100LL
Parking: tiedowns
Airframe service: NONE
Powerplant service: NONE
Bottled oxygen: NONE
Bulk oxygen: NONE

Runway Information

Runway 7/25

Dimensions: 2203 x 50 ft. / 671 x 15 m
Surface: asphalt/treated, in good condition
Weight bearing capacity: 
Single wheel: GROSS PAVEMENT STRENGTH PRVDD BY AIRPORT MGR; 8000 LBS.
RUNWAY 7  RUNWAY 25
Traffic pattern: leftleft
Markings: basic, in good conditionbasic, in good condition
Runway end identifier lights: nono
Obstructions: 60 ft. trees, 1100 ft. from runway, 100 ft. left and right of centerline, 15:1 slope to clear12 ft. bldg, 250 ft. from runway, 119 ft. right of centerline, 4:1 slope to clear
PRIVATE ROAD 0-70' FROM RWY END, 0'LEFT TO 125' RIGHT. +3' ROAD 100-200' FROM RWY END 125' LEFT-10'RIGHT.

Airport Ownership and Management from official FAA records

Ownership: Publicly-owned
Owner: CITY OF WOODLAKE
350 NORTH VALENCIA BLVD
WOODLAKE, CA 93286
Phone 559-564-8055
Manager: ADRIAN ORNELAS
350 NORTH VALENCIA BLVD
WOODLAKE, CA 93286
Phone 559-564-8055

Airport Operational Statistics

Aircraft based on the field: 16
Single engine airplanes: 14
Ultralights: 2
    
Aircraft operations: avg 33/day *
67% transient general aviation
33% local general aviation
* for 12-month period ending 01 May 2019

Additional Remarks

AIRPORT NOT APPROVED FOR NIGHT-USE.
FOR CD CTC OAKLAND ARTCC AT 510-745-3380.

Instrument Procedures

There are no published instrument procedures at O42.

Some nearby airports with instrument procedures:

KVIS - Visalia Municipal Airport (15 nm W)
KTLR - Mefford Field Airport (18 nm SW)
KPTV - Porterville Municipal Airport (22 nm S)
O32 - Reedley Municipal Airport (23 nm NW)
KHJO - Hanford Municipal Airport (26 nm W)
 
Loc | Ops | Rwys | IFR | FBO | Links
Com | Nav | Svcs | Stats | Notes
Area around O42 (Woodlake Airport)
 
Road maps at: MapQuest Bing Google
 
Aerial photo
WARNING: Photo may not be current or correct
Aerial photo of O42 (Woodlake Airport)
Do you have a better or more recent aerial photo of Woodlake Airport that you would like to share? If so, please send us your photo.

 
Sectional chart

 
Airport distance calculator
Flying to Woodlake Airport? Find the distance to fly.

From to O42

Sunrise and sunset
Times for 06-Dec-2019
 Local
(UTC-8)
 Zulu
(UTC)
Morning civil twilight06:2714:27
Sunrise06:5514:55
Sunset16:4000:40
Evening civil twilight17:0901:09

Current date and time
Zulu (UTC)  06-Dec-2019 11:07:15
Local (UTC-8)  06-Dec-2019 03:07:15
 
METAR
KVIS 
15nm W 
061056Z AUTO 09003KT 10SM CLR 08/08 A3010 RMK AO2 SLP201 T00830078
KPTV 
23nm S 
061056Z AUTO 00000KT 10SM CLR 07/06 A3010 RMK AO2 SLP192 T00720061
KO32 
23nm NW 
061055Z AUTO 00000KT 10SM 09/09 A3010 RMK AO2
KHJO 
25nm W 
061053Z AUTO 05004KT 1 3/4SM BR CLR 09/08 A3010 RMK AO2 SLP194 T00940083
TAF
KVIS 
15nm W 
060717Z 0607/0706 00000KT 3SM BR BKN200 TEMPO 0608/0612 5SM BR FM061200 VRB04KT P6SM BKN200 TEMPO 0613/0617 4SM BR FM062100 13007KT P6SM SCT100 OVC200
NOTAMs
Click for the latest NOTAMs
NOTAMs are issued by the DoD/FAA and will open in a separate window not controlled by AirNav.

 

 
 

FBO, Fuel Providers, and Aircraft Ground Support

  
 Business Name 
 
 Contact 
 
 Services / Description 
 
Fuel Prices
 
Comments
  
Woodlake Airport 559-564-8055
no information available

If you are affiliated with Woodlake Airport and would like to show here your services, contact info, web link, logo, and more, click here
100LL
SS $5.00 
 Updated 22-Nov-2019
 
   2 read write
SS=Self service
Update Fuel Prices
 

Would you like to see your business listed on this page?

 If your business provides an interesting product or service to pilots, flight crews, aircraft, or users of the Woodlake Airport, you should consider listing it here.  To start the listing process, click on the button below
 
Add a business
 

Other Pages about Woodlake Airport

www.cityofwoodlake.com/home.asp?icat=airport
 
Update a link
 
Copyright © AirNav, LLC. All rights reserved. Privacy Policy  Contact